FW6146 Weather Reports


Display with metric or nautical units.
time (UTC)temp
F
wind
direction
speed
MPH
gust
MPH
rain 1hr
in
rain 24hr
in
rain mn
in
humidity
%
barometer
mb
20260903233148 70 0.0 0.0 0.00 0.00 0.00 93 1011.1
20260903232207 70 0.0 0.0 0.00 0.00 0.00 93 1011.4
20260903231154 71 0.0 0.0 0.00 0.00 0.00 92 1011.1
20260903230213 71 0.0 0.0 0.00 0.00 0.00 92 1010.9
20260903225154 71 0.0 0.0 0.00 0.00 0.00 91 1010.9
20260903224214 71 0.0 0.0 0.00 0.00 0.00 91 1011.1
20260903223200 72 0.0 0.0 0.00 0.00 0.00 91 1011.3
20260903222146 72 0.0 0.0 0.00 0.00 0.00 90 1011.5
20260903221205 72 0.0 0.0 0.00 0.00 0.00 89 1011.3
20260903220151 73 0.0 0.0 0.00 0.00 0.00 88 1011.4
20260903215231 73 0.0 0.0 0.00 0.00 0.00 88 1011.4
20260903214157 73 0.0 0.0 0.00 0.00 0.00 88 1011.2
20260903213216 72 0.0 0.0 0.00 0.00 0.00 88 1011.3
20260903212202 73 0.0 0.0 0.00 0.00 0.00 87 1011.3
20260903211149 73 0.0 0.0 0.00 0.00 0.00 87 1011.4
20260903210208 73 0.0 0.0 0.00 0.00 0.00 87 1011.4
20260903205155 73 0.0 0.0 0.00 0.00 0.00 87 1011.1
20260903204214 74 0.0 0.0 0.00 0.00 0.00 86 1011.5
20260903203201 74 0.0 0.0 0.00 0.00 0.00 86 1011.3
20260903202220 74 0.0 0.0 0.00 0.00 0.00 86 1011.5
20260903201205 75 0.0 0.0 0.00 0.00 0.00 85 1011.6
20260903200152 75 0.0 0.0 0.00 0.00 0.00 85 1011.5
20260903195211 75 0.0 0.0 0.00 0.00 0.00 87 1011.7
20260903194237 75 0.0 0.0 0.00 0.00 0.00 86 1011.7
20260903193217 74 0.0 0.0 0.00 0.00 0.00 87 1011.8
20260903192203 73 0.0 0.0 0.00 0.00 0.00 90 1011.7
20260903191222 73 0.0 0.0 0.00 0.00 0.00 92 1011.9
20260903190208 73 0.0 0.0 0.00 0.00 0.00 91 1012.1
20260903185154 73 0.0 0.0 0.00 0.00 0.00 90 1012.3
20260903184213 73 0.0 0.0 0.00 0.00 0.00 90 1012.2
20260903183200 73 0.0 0.0 0.00 0.00 0.00 89 1012.5
20260903182239 73 0.0 0.0 0.00 0.00 0.00 90 1012.6
20260903181206 73 303 0.0 1.0 0.00 0.00 0.00 91 1012.6
20260903180225 72 0.0 1.0 0.00 0.00 0.00 91 1012.8
20260903175210 71 0.0 0.0 0.00 0.00 0.00 92 1012.7
20260903174156 72 0.0 0.0 0.00 0.00 0.00 96 1012.7
20260903173216 71 0.0 0.0 0.00 0.00 0.00 97 1012.5
20260903172221 71 0.0 0.0 0.00 0.00 0.00 97 1012.7
20260903171221 71 0.0 0.0 0.00 0.00 0.00 98 1012.6
20260903170227 71 0.0 0.0 0.00 0.00 0.00 98 1012.6
20260903165246 71 0.0 0.0 0.00 0.00 0.00 98 1012.5
20260903164212 70 0.0 0.0 0.00 0.00 0.00 98 1012.4
20260903163158 69 0.0 0.0 0.00 0.00 0.00 98 1012.4
20260903162237 69 0.0 0.0 0.00 0.00 0.00 98 1012.4
20260903161203 69 0.0 0.0 0.00 0.00 0.00 98 1012.6
20260903160222 69 0.0 0.0 0.00 0.00 0.00 98 1012.6
20260903155227 69 0.0 0.0 0.00 0.00 0.00 98 1012.9
20260903154226 68 0.0 0.0 0.00 0.00 0.00 98 1013.1
20260903153211 68 0.0 0.0 0.00 0.00 0.00 98 1013.1
20260903152156 68 0.0 0.0 0.00 0.00 0.00 98 1013.3
20260903151215 68 297 0.0 1.0 0.00 0.00 0.00 98 1013.4
20260903150159 68 0.0 0.0 0.00 0.00 0.00 98 1013.4
20260903145218 68 0.0 0.0 0.00 0.00 0.00 98 1013.6
20260903144204 68 0.0 0.0 0.00 0.00 0.00 98 1013.6
20260903143151 67 0.0 0.0 0.00 0.00 0.00 98 1013.8
20260903142210 67 0.0 0.0 0.00 0.00 0.00 98 1013.8
20260903141156 67 0.0 0.0 0.00 0.00 0.00 98 1013.9
20260903140236 66 0.0 0.0 0.00 0.00 0.00 98 1014.2
20260903135202 66 0.0 0.0 0.00 0.00 0.00 98 1014.2
20260903134222 66 0.0 0.0 0.00 0.00 0.00 98 1014.1
20260903133208 65 0.0 0.0 0.00 0.00 0.00 98 1014.2
20260903132154 65 0.0 0.0 0.00 0.00 0.00 98 1014.1
20260903131213 65 0.0 0.0 0.00 0.00 0.00 98 1013.9
20260903130200 65 0.0 0.0 0.00 0.00 0.00 98 1014.1
20260903125219 65 0.0 0.0 0.00 0.00 0.00 98 1014.1
20260903124205 64 0.0 0.0 0.00 0.00 0.00 98 1014.4
20260903123225 64 0.0 0.0 0.00 0.00 0.00 98 1014.4
20260903122252 64 0.0 0.0 0.00 0.00 0.00 98 1014.5
20260903121158 64 0.0 0.0 0.00 0.00 0.00 98 1014.4
20260903120217 64 0.0 0.0 0.00 0.00 0.00 98 1014.7
20260903115203 64 0.0 0.0 0.00 0.00 0.00 98 1015.0
20260903114223 64 0.0 0.0 0.00 0.00 0.00 98 1014.9
20260903113209 64 0.0 0.0 0.00 0.00 0.00 98 1015.0
20260903112155 64 0.0 0.0 0.00 0.00 0.00 98 1015.2
20260903111215 64 0.0 1.0 0.00 0.00 0.00 98 1014.9
20260903110201 64 292 1.0 1.0 0.00 0.00 0.00 98 1014.7
20260903105221 64 0.0 0.0 0.00 0.00 0.00 97 1014.6
20260903104208 63 0.0 0.0 0.00 0.00 0.00 97 1014.4
20260903103227 63 0.0 0.0 0.00 0.00 0.00 97 1014.3
20260903102253 63 0.0 0.0 0.00 0.00 0.00 97 1014.3
20260903101220 63 0.0 0.0 0.00 0.00 0.00 97 1014.5
20260903100220 63 0.0 0.0 0.00 0.00 0.00 97 1014.5
20260903095206 63 0.0 0.0 0.00 0.00 0.00 97 1014.5
20260903094226 63 0.0 0.0 0.00 0.00 0.00 96 1014.8
20260903093212 63 0.0 0.0 0.00 0.00 0.00 96 1014.7
20260903092232 63 0.0 0.0 0.00 0.00 0.00 96 1015.0
20260903091112 63 0.0 0.0 0.00 0.00 0.00 96 1014.8
20260903090131 63 0.0 0.0 0.00 0.00 0.00 95 1014.8
20260903085118 63 0.0 0.0 0.00 0.00 0.00 95 1014.8
20260903084104 63 0.0 1.0 0.00 0.00 0.00 93 1015.3
20260903083124 64 307 0.0 1.0 0.00 0.00 0.00 92 1015.7
20260903082110 65 303 1.0 1.0 0.00 0.00 0.00 88 1015.5
20260903081129 65 0.0 0.0 0.00 0.00 0.00 86 1015.5
20260903080116 64 0.0 0.0 0.00 0.00 0.00 86 1015.5
20260903075135 64 0.0 0.0 0.00 0.00 0.00 86 1015.6
20260903074141 64 320 0.0 1.0 0.00 0.00 0.00 86 1015.9
20260903073107 64 0.0 0.0 0.00 0.00 0.00 86 1015.9
20260903072127 64 0.0 0.0 0.00 0.00 0.00 85 1015.9
20260903071113 64 0.0 0.0 0.00 0.00 0.00 85 1016.3
20260903070132 64 0.0 0.0 0.00 0.00 0.00 85 1016.5
20260903065118 64 0.0 0.0 0.00 0.00 0.00 85 1016.8
20260903064137 64 0.0 1.0 0.00 0.00 0.00 85 1016.9
20260903063124 64 0.0 0.0 0.00 0.00 0.00 85 1017.0
20260903062110 64 0.0 0.0 0.00 0.00 0.00 85 1017.1
20260903061129 64 0.0 0.0 0.00 0.00 0.00 85 1017.3
20260903060116 64 0.0 0.0 0.00 0.00 0.00 84 1017.7
20260903055135 64 0.0 0.0 0.00 0.00 0.00 85 1017.8
20260903054121 64 0.0 0.0 0.00 0.00 0.00 85 1018.2
20260903053140 64 0.0 0.0 0.00 0.00 0.00 84 1018.0
20260903052126 64 0.0 0.0 0.00 0.00 0.00 85 1018.2
20260903051113 64 0.0 0.0 0.00 0.00 0.00 86 1018.1
20260903050205 64 0.0 0.0 0.00 0.00 0.00 85 1018.5
20260903045158 64 0.0 0.0 0.00 0.00 0.00 86 1018.5
20260903044158 64 0.0 0.0 0.00 0.00 0.00 86 1018.3
20260903043124 64 0.0 0.0 0.00 0.00 0.00 87 1018.4
20260903042143 64 0.0 0.0 0.00 0.00 0.00 86 1018.4
20260903041129 64 0.0 0.0 0.00 0.00 0.00 86 1018.4
20260903040148 64 0.0 0.0 0.00 0.00 0.00 86 1018.0
20260903035134 64 0.0 0.0 0.00 0.00 0.00 86 1018.2
20260903034120 64 0.0 0.0 0.00 0.00 0.00 86 1018.6
20260903033139 64 0.0 0.0 0.00 0.00 0.00 87 1018.7
20260903032125 64 0.0 0.0 0.00 0.00 0.00 87 1018.7
20260903031144 64 0.0 0.0 0.00 0.00 0.00 87 1018.7
20260903030130 63 0.0 0.0 0.00 0.00 0.00 89 1018.9
20260903025149 63 0.0 0.0 0.00 0.00 0.00 89 1019.1
20260903024135 63 0.0 0.0 0.00 0.00 0.00 88 1019.4
20260903023120 63 0.0 0.0 0.00 0.00 0.00 88 1019.3
20260903022138 63 0.0 0.0 0.00 0.00 0.00 87 1019.3
20260903021124 64 0.0 0.0 0.00 0.00 0.00 87 1019.1
20260903020143 64 0.0 0.0 0.00 0.00 0.00 87 1019.3
20260903015127 64 0.0 0.0 0.00 0.00 0.00 87 1019.1
20260903014146 64 0.0 0.0 0.00 0.00 0.00 87 1019.0
20260903013131 64 0.0 0.0 0.00 0.00 0.00 87 1019.1
20260903012149 65 0.0 0.0 0.00 0.00 0.00 86 1019.1
20260903011131 65 0.0 0.0 0.00 0.00 0.00 86 1019.2
20260903010139 65 0.0 0.0 0.00 0.00 0.00 86 1019.2
20260903005125 65 0.0 0.0 0.00 0.00 0.00 86 1019.2
20260903004143 65 0.0 0.0 0.00 0.00 0.00 85 1019.4
20260903003129 66 0.0 0.0 0.00 0.00 0.00 84 1019.4
20260903002148 66 0.0 1.0 0.00 0.00 0.00 84 1019.6
20260903001134 66 0.0 0.0 0.00 0.00 0.00 83 1019.6
20260903000153 66 0.0 0.0 0.00 0.00 0.00 82 1019.9
20260902235139 67 0.0 0.0 0.00 0.00 0.00 81 1020.1
20260902234125 67 0.0 0.0 0.00 0.00 0.00 80 1020.2